Snowfall_Accumulation
0.0 0.0 0.0 0.0 0.0 0.0 0.0 0.0 11.6 0.0 0.0 5.4 10.4 11.0 4.6 0.4 0.2 0.0 0.7 0.7 0.8 1.3 1.1 1.9 0.1 0.4 0.4 1.3 2.5 1.6 1.4 4.4 3.3 0.9 0.6 1.0 3.4 0.9 0.2 4.3 1.8 3.0 4.0 3.2
0.0 0.0 0.0 0.0 0.0 0.0 0.0 4.4 2.7 0.0 0.0 10.5 6.7 1.1 0.0 2.1 1.9 0.6 2.3 1.8 2.4 1.8 1.1 4.8 0.0 2.6 1.9 0.4 1.9 2.6 2.4 4.9 3.9 4.2 1.9 2.1 4.9 4.0 1.7 1.9 2.7 3.1 3.9 0.7
0.0 0.0 0.0 0.0 0.0 0.0 0.0 4.5 10.6 0.0 0.0 0.0 3.5 4.3 1.9 1.0 1.1 2.1 2.1 2.4 0.1 2.4 0.8 0.1 3.9 2.9 3.4 2.2 2.1 1.5 6.3 5.9 4.0 3.9 8.0 9.4 7.7 3.8 2.4 3.5 7.9 0.9 0.7 0.3
0.0 0.0 0.0 0.0 0.0 0.0 0.0 5.5 6.8 0.0 9.1 1.9 3.6 4.8 4.4 2.4 2.9 0.4 1.8 2.3 1.8 3.6 4.8 1.9 1.8 0.7 0.4 0.0 2.0 2.4 3.8 3.8 0.8 1.9 2.5 6.8 5.5 3.7 3.6 5.5 1.9 3.2 0.8 0.6
0.0 0.0 0.0 0.0 0.0 0.0 0.0 5.7 5.0 2.9 3.6 0.9 1.9 2.5 2.6 1.3 1.6 2.9 2.4 2.1 1.4 1.3 3.5 3.6 3.2 2.1 0.3 2.0 2.0 4.2 3.5 5.3 5.7 6.3 2.9 3.4 3.7 2.0 2.7 2.4 1.8 1.2 1.2 0.6
0.0 0.0 0.0 0.0 0.0 0.0 0.0 2.9 1.6 12.5 3.2 0.7 1.6 2.0 1.3 2.4 1.7 0.6 0.5 1.2 1.3 0.7 0.5 0.0 0.0 0.3 1.4 2.9 2.7 1.7 6.4 9.4 12.0 9.3 2.1 4.1 3.6 4.3 3.7 4.3 5.3 4.2 3.6 2.4
0.0 0.0 0.0 0.0 0.0 0.0 0.0 0.0 4.2 17.0 7.2 0.9 0.6 0.1 0.5 1.1 0.4 2.1 0.0 0.0 1.1 0.0 0.0 0.0 0.0 0.3 2.1 2.1 2.1 1.3 3.9 8.1 12.6 15.5 11.8 14.8 6.3 2.1 2.2 4.0 4.7 5.3 3.4 1.1
0.0 0.0 0.0 0.0 0.0 0.0 0.0 0.0 3.1 17.1 11.0 0.4 0.2 0.4 0.6 0.0 0.0 0.4 0.3 0.0 0.0 0.0 0.0 1.4 2.9 2.5 1.9 1.1 1.0 1.8 2.3 5.2 10.7 12.7 10.4 8.4 5.1 4.7 6.0 5.4 5.3 4.0 3.0 1.2
0.0 0.0 0.0 0.0 0.0 0.0 0.0 0.0 0.0 15.3 15.9 2.1 0.3 0.4 0.0 1.5 1.1 0.3 0.0 0.0 0.0 0.0 2.1 3.8 5.8 2.5 0.9 1.5 0.7 0.2 0.6 2.7 9.9 11.4 10.8 6.8 5.6 6.5 7.9 3.9 4.4 2.6 2.4 1.6
0.0 0.0 0.0 0.0 0.0 0.0 0.0 0.0 0.0 3.6 19.2 0.5 0.0 1.2 1.1 0.1 0.8 2.1 0.0 0.2 0.0 0.0 2.4 5.3 4.5 2.3 1.8 1.0 2.6 1.6 1.1 3.2 8.2 7.9 10.6 5.3 4.7 4.2 5.5 7.0 5.7 3.6 3.8 2.8
0.0 0.0 0.0 0.0 0.0 0.0 0.0 0.0 0.0 0.0 19.9 1.6 0.0 0.0 0.2 0.6 0.6 4.1 0.2 1.7 0.2 2.4 5.0 5.9 1.5 3.6 1.5 2.2 2.2 4.9 4.3 4.8 4.5 6.1 11.2 6.0 2.1 1.7 5.4 6.7 3.5 3.5 3.4 3.8
0.0 0.0 0.0 0.0 0.0 0.0 0.0 0.0 0.0 0.0 7.7 1.6 0.0 0.0 0.0 0.0 0.0 0.6 2.4 1.8 0.7 4.0 5.7 3.5 5.5 5.0 3.6 2.4 3.1 1.2 5.6 6.5 7.7 6.0 7.5 6.3 4.8 6.4 6.1 3.2 1.9 1.6 1.6 2.3
0.0 0.0 0.0 0.0 0.0 0.0 0.0 0.0 0.0 0.0 12.2 4.4 1.5 0.4 0.0 0.0 0.0 0.0 4.2 0.1 0.3 0.8 1.7 7.7 7.7 6.7 3.7 3.1 1.2 0.4 2.6 2.1 2.1 2.1 1.4 0.4 3.5 2.0 1.3 1.3 2.4 1.8 1.0 0.9
0.0 0.0 0.0 0.0 0.0 0.0 0.0 0.0 0.0 0.0 13.7 19.6 2.0 0.0 0.0 0.0 0.0 0.0 0.0 0.0 0.1 0.9 2.4 11.5 11.9 7.8 1.4 1.1 1.2 0.3 0.6 0.2 0.2 0.0 0.0 0.1 0.7 0.5 1.0 0.9 0.7 0.7 0.3 0.9
0.0 0.0 0.0 0.0 0.0 0.0 0.0 0.0 0.0 0.0 5.1 21.3 5.7 0.7 0.3 0.0 0.0 0.0 0.0 0.0 0.2 1.5 6.9 11.8 9.6 3.3 4.2 3.4 2.5 1.2 0.8 1.3 1.2 0.4 0.1 0.7 0.0 0.0 0.0 0.2 0.3 0.1 0.1 1.3
0.0 0.0 0.0 0.0 0.0 0.0 0.0 5.8 0.0 0.0 0.0 14.2 18.1 0.5 0.3 0.0 0.0 0.0 0.0 0.0 0.3 4.3 8.8 10.2 3.6 2.0 4.8 8.1 3.6 0.6 0.4 0.1 0.8 0.8 0.1 0.2 0.0 0.1 0.0 0.9 0.3 0.2 0.6 1.7
0.0 0.0 0.0 0.0 0.0 0.0 0.6 9.3 0.0 0.0 0.0 26.7 35.2 18.2 3.4 1.2 1.3 2.2 2.7 2.3 2.4 8.5 15.7 11.4 7.1 5.9 9.1 12.7 5.2 0.6 0.2 0.1 0.2 0.2 0.1 1.1 0.3 0.3 1.1 0.6 0.2 1.4 1.4 1.1
0.0 0.0 0.0 0.0 0.0 0.0 0.3 0.0 0.0 0.0 4.6 21.7 58.1 31.3 12.2 1.8 2.8 6.4 6.6 7.3 6.5 19.2 13.6 10.8 5.8 6.3 12.3 14.5 1.6 0.6 0.5 1.0 1.9 2.0 1.5 3.1 2.7 2.4 2.8 0.6 1.6 1.4 1.6 1.7
0.0 0.0 0.0 0.0 0.0 0.2 0.0 0.0 0.0 0.0 1.5 59.7 41.3 23.2 12.8 4.9 3.1 5.1 9.2 11.6 24.0 17.5 19.3 9.0 6.8 14.5 18.6 8.7 3.1 1.3 2.4 4.2 3.6 3.8 3.0 2.2 2.0 2.8 2.7 2.0 1.7 2.7 4.4 3.4
0.0 0.0 3.1 17.5 4.3 0.0 0.0 0.0 15.1 31.1 44.4 41.9 27.4 13.8 10.2 6.7 9.6 11.0 15.7 22.5 27.1 30.6 17.8 11.9 19.6 13.3 7.7 5.5 6.5 6.2 5.8 5.6 5.6 9.1 7.2 4.2 5.7 4.9 5.2 5.6 5.7 5.5 5.9 6.0
2.8 19.3 21.2 3.3 0.0 1.8 10.9 44.6 45.7 37.3 32.5 17.2 13.0 8.2 9.4 6.9 16.3 17.7 20.3 28.3 26.6 26.9 15.6 13.8 16.0 13.1 7.1 5.7 7.5 7.6 7.3 7.3 7.1 7.2 7.8 9.4 11.4 11.3 8.7 7.0 9.6 7.7 8.2 8.4
3.5 2.8 8.7 9.5 33.7 43.8 46.1 40.2 21.2 14.4 11.8 12.8 9.4 6.4 7.5 12.5 13.2 22.1 26.3 24.1 21.9 18.8 9.5 16.2 12.9 8.2 7.1 9.1 8.7 8.7 8.5 8.2 7.7 7.7 9.4 8.0 8.1 8.7 8.6 9.1 9.3 8.4 8.0 7.3
5.2 28.0 39.2 36.0 37.2 41.0 30.4 17.1 12.0 11.3 8.9 10.2 8.7 9.9 11.2 14.4 20.1 28.1 24.7 23.5 16.7 10.8 13.3 10.4 8.7 6.9 6.9 8.4 10.0 10.2 10.3 8.4 8.7 9.1 7.0 7.0 7.2 6.8 6.3 6.4 5.2 5.2 5.0 5.8
25.6 37.9 34.0 23.5 20.4 12.0 10.1 7.6 7.2 7.4 10.1 11.7 12.5 13.4 15.6 14.2 21.2 20.5 22.1 15.1 10.3 16.6 12.0 9.2 8.1 8.2 7.7 7.2 7.9 8.0 8.2 8.5 8.3 10.7 10.6 8.4 6.9 6.0 5.3 5.6 6.3 5.5 5.1 5.5
40.7 30.7 20.7 12.2 8.3 6.6 7.7 7.5 7.6 9.3 12.7 16.1 17.1 17.4 16.9 19.4 23.0 16.5 10.7 15.2 13.9 12.0 10.2 9.7 9.8 9.8 9.4 8.8 8.0 7.2 6.7 7.4 7.6 7.6 8.0 9.1 6.6 4.8 4.2 5.3 5.3 5.0 5.0 4.1
34.3 24.5 11.1 5.2 4.4 4.4 3.5 5.3 6.3 7.6 10.1 12.2 17.0 16.9 17.8 16.5 14.8 13.9 10.7 10.8 10.1 11.1 11.6 11.5 10.4 9.7 9.1 9.5 9.1 8.5 8.5 8.5 8.8 8.6 9.2 8.3 8.4 8.9 8.7 6.6 5.7 5.3 5.7 4.6
32.7 12.0 6.7 6.4 4.1 3.8 4.0 4.3 4.5 4.9 7.3 9.3 11.4 15.9 11.2 12.1 12.7 9.6 8.0 10.2 11.5 10.6 8.8 8.2 8.5 8.1 7.9 7.6 6.7 6.5 5.9 5.7 5.9 7.0 8.0 9.2 9.8 9.3 7.7 7.7 9.3 8.5 8.2 7.7